Theta_e
318 324 327 328 333 337 336 335 334 333 333 333 334 337 338 334 333 336 333 335 332 330 317 325 332 337 338 338 337 333 327 325 324 321 321 322 327 330 331 333 332 330 321 318 320 321 321 323 323
320 324 328 331 337 343 338 334 333 333 332 334 335 335 336 336 334 337 338 336 333 331 319 325 330 336 338 338 338 336 329 327 327 323 321 322 326 329 330 331 328 328 321 319 321 321 322 324 325
324 326 329 335 338 339 336 334 334 333 334 334 336 335 335 335 336 337 339 337 334 331 323 324 328 333 337 338 339 338 331 330 331 328 323 322 325 327 330 330 325 323 321 320 324 324 323 323 325
326 329 330 334 337 334 333 333 333 334 335 336 335 336 338 337 336 337 337 337 334 331 328 328 326 330 334 337 339 339 333 332 333 332 327 322 322 325 327 327 322 321 322 322 325 328 326 324 325
326 329 334 336 335 333 333 332 332 332 332 332 333 335 339 339 336 337 337 337 335 333 328 328 322 328 331 335 337 338 336 334 334 334 331 325 322 324 326 324 322 321 322 323 324 327 327 328 328
326 330 333 336 335 332 332 331 332 332 331 332 334 334 343 340 337 337 336 337 336 335 330 329 324 323 327 331 334 336 336 335 334 335 334 327 322 322 322 322 322 322 322 325 327 326 325 327 330
325 327 330 331 332 332 332 331 331 331 331 331 331 333 342 341 339 337 336 337 337 336 334 333 330 320 323 326 328 331 334 334 334 334 334 326 321 321 320 320 321 321 323 326 328 327 325 324 326
324 326 325 327 331 332 332 331 331 331 331 331 331 331 337 342 340 338 337 337 338 339 337 338 336 322 320 323 325 325 327 331 333 334 332 324 322 322 321 320 320 321 322 323 325 326 326 325 324
326 325 325 327 329 331 330 330 330 330 331 330 331 330 331 334 336 337 338 338 337 339 340 343 342 332 320 321 322 324 324 325 329 331 327 324 324 324 324 322 320 319 319 321 324 325 325 326 325
327 327 328 328 328 328 327 327 327 326 327 329 329 331 329 328 328 329 334 338 339 339 340 341 343 340 332 329 328 325 322 324 325 325 325 325 326 328 331 327 324 325 324 321 321 323 324 327 328
328 328 327 327 327 327 327 326 326 326 326 326 328 329 328 327 327 328 329 329 336 340 340 341 342 342 337 335 333 333 328 323 325 325 327 329 328 329 332 334 333 332 327 327 325 324 326 327 326
326 326 325 326 326 326 325 325 324 324 325 327 326 326 325 326 327 327 327 328 329 332 341 341 342 343 340 338 336 336 336 332 329 331 330 334 336 334 333 334 335 334 332 331 329 329 325 324 326
324 325 326 326 324 324 324 324 324 323 325 326 325 324 325 325 326 325 327 327 330 330 332 341 341 343 343 340 339 337 339 338 335 335 334 334 336 336 336 335 334 337 335 335 333 332 332 330 329
324 324 324 323 323 323 324 324 323 323 324 324 324 324 324 324 325 327 328 329 328 328 329 334 341 342 344 345 342 342 338 340 338 338 338 336 335 338 337 338 335 335 337 336 335 332 331 334 332
322 322 322 323 323 323 323 322 323 324 325 324 324 324 325 325 324 329 328 329 329 330 334 336 339 345 345 346 346 344 345 341 342 339 339 340 339 337 340 339 339 338 336 335 335 334 333 332 334
324 325 325 325 324 324 324 324 325 326 326 326 325 325 325 325 327 327 327 328 331 332 332 335 340 341 348 347 348 348 345 344 345 341 341 340 341 341 339 341 340 339 337 335 334 334 335 335 334
326 328 328 327 326 326 326 326 326 326 326 326 326 326 326 326 327 328 331 332 333 335 337 338 338 340 341 342 349 349 348 348 345 345 342 342 342 343 342 341 341 340 338 336 335 334 334 335 335
327 326 325 324 324 324 324 325 325 324 322 323 323 325 327 327 326 327 330 329 329 327 332 336 338 339 339 341 341 347 348 348 347 347 345 344 344 342 344 342 341 340 339 338 336 335 335 336 336
322 322 322 322 322 322 322 322 322 322 322 323 325 326 326 326 326 326 325 324 324 324 324 329 336 337 337 339 342 344 342 345 345 346 346 346 345 344 343 343 342 341 340 338 337 337 337 337 336
319 319 320 320 321 323 321 320 321 322 323 326 325 325 325 325 324 324 321 320 321 321 322 322 329 334 335 336 337 341 345 342 336 342 345 345 345 344 344 343 343 342 339 339 338 338 337 337 336
320 320 319 318 319 318 319 319 319 320 324 325 324 324 323 323 322 321 319 317 317 316 318 320 321 331 333 331 331 332 335 343 343 336 345 344 344 345 344 344 343 342 341 339 338 339 337 336 335
322 318 318 318 318 318 318 319 320 320 325 325 323 322 321 320 319 317 316 315 314 314 313 315 317 327 330 327 327 326 329 331 335 343 342 342 344 343 344 343 343 343 341 340 339 339 338 336 336
317 319 319 318 316 317 317 317 319 321 326 325 321 320 319 318 318 317 316 314 313 313 312 313 314 320 327 324 322 322 320 322 325 336 341 342 345 343 342 343 342 342 342 340 340 339 338 337 336
317 318 315 314 316 318 316 316 315 316 317 321 320 319 318 317 317 317 315 314 313 312 312 311 314 315 324 321 320 318 317 317 320 321 329 337 342 343 344 343 342 342 342 341 340 340 338 337 336
312 312 312 314 315 314 315 314 316 316 317 320 320 319 318 317 317 315 314 313 311 311 310 310 312 314 323 319 317 315 313 314 316 317 319 318 321 327 336 338 342 341 341 341 340 339 338 337 336
311 311 313 313 313 314 312 312 314 318 320 319 318 318 317 317 316 313 312 312 310 309 309 310 310 313 321 318 316 313 311 311 310 309 312 314 315 314 316 320 326 339 341 340 339 335 333 336 331
311 310 312 312 312 313 313 314 314 317 320 321 320 319 318 316 313 312 310 311 309 309 308 309 309 312 319 318 315 312 310 309 308 308 307 307 307 307 308 311 314 315 319 320 322 324 324 324 322
310 310 310 310 310 312 311 312 312 315 314 314 316 313 311 311 311 310 309 310 308 308 308 308 309 313 316 317 313 311 310 307 305 304 303 303 304 304 304 304 305 309 309 310 312 310 312 313 313
310 310 310 310 312 314 316 314 314 314 312 312 311 310 310 310 310 309 309 309 307 307 307 308 311 313 315 314 310 308 306 304 302 300 299 298 299 302 299 300 302 303 304 305 305 305 306 306 307
309 309 312 313 312 312 311 312 312 312 311 309 308 308 309 309 309 310 310 308 307 308 307 308 311 310 311 309 306 304 303 301 300 298 296 296 297 296 295 295 296 297 301 300 300 300 300 300 300
Wind_Speed
16 17 16 15 4 7 5 5 12 13 12 9 9 4 9 17 13 5 3 14 23 23 27 26 23 22 25 26 25 22 20 19 17 16 17 18 17 15 13 12 12 11 10 10 10 10 10 11 12
16 14 13 5 6 5 5 14 14 11 9 3 4 9 7 14 14 10 10 11 21 21 27 28 26 23 24 26 25 24 23 21 18 17 18 18 18 15 13 12 10 10 10 10 10 10 10 11 11
17 12 6 7 10 3 11 13 13 8 6 8 6 3 5 9 11 7 13 15 23 20 25 27 28 27 26 26 26 25 24 22 20 19 19 19 19 17 14 12 11 10 10 10 10 10 10 11 10
7 5 6 8 5 10 11 11 9 9 3 6 4 7 7 9 8 10 14 20 23 22 22 24 29 28 27 27 27 26 25 24 23 21 21 20 20 18 16 14 13 12 11 10 10 10 9 10 11
12 5 10 13 4 6 7 10 8 8 11 11 11 9 6 15 16 18 16 20 24 23 23 24 30 29 28 28 28 28 27 26 25 23 22 21 20 20 18 16 15 14 14 13 12 12 12 12 12
6 7 12 11 11 7 3 7 11 9 11 8 6 10 7 15 14 16 15 19 23 25 26 24 27 31 30 29 29 29 29 28 27 25 24 22 22 21 20 18 17 16 15 15 14 14 13 14 14
11 12 13 16 12 3 5 4 6 8 12 10 9 10 11 15 14 12 11 16 20 24 25 25 27 31 31 31 30 29 30 29 29 27 26 24 23 22 21 20 19 18 17 17 17 16 16 16 16
6 8 14 17 9 7 11 4 7 8 11 14 6 8 8 11 8 9 12 14 16 21 22 25 23 31 33 32 31 31 30 29 29 28 27 25 24 23 22 21 21 21 21 20 20 19 19 19 19
12 9 11 11 17 10 12 8 8 10 11 13 11 7 3 8 4 6 11 17 21 21 23 20 21 28 35 34 33 31 31 30 29 29 28 26 25 25 24 25 24 24 23 23 22 22 21 21 22
5 10 13 14 12 13 14 16 16 16 19 10 14 10 16 14 16 12 12 16 27 30 29 28 25 25 28 28 29 31 33 33 33 32 31 30 29 25 23 25 25 25 24 25 24 24 24 23 25
7 11 18 13 10 12 12 15 17 17 16 15 11 14 12 13 14 14 13 23 19 35 34 35 36 32 31 28 26 28 33 36 36 35 32 31 32 28 26 26 27 26 26 26 27 27 27 28 28
7 13 14 16 12 12 14 16 14 15 16 12 11 10 10 13 12 12 16 13 25 18 36 38 37 39 38 32 31 29 31 34 35 36 36 32 30 31 31 29 25 31 31 29 29 28 31 30 29
16 14 17 17 18 15 17 11 14 19 13 5 9 12 13 13 13 18 18 15 13 17 17 31 35 41 39 38 33 33 32 35 35 34 37 37 33 33 30 32 30 26 30 29 29 29 28 28 29
16 15 17 19 20 21 13 7 14 20 14 3 5 12 15 13 15 14 24 24 23 24 25 22 31 42 42 39 39 32 35 31 37 36 37 41 40 33 34 33 34 33 29 30 31 30 32 29 29
16 19 20 20 23 3 7 14 19 17 14 17 11 14 14 18 15 15 21 23 29 29 33 34 29 32 37 37 34 36 26 32 29 35 37 39 44 42 35 35 34 35 35 30 31 32 30 29 29
19 19 15 16 1 4 8 14 16 14 20 22 17 9 8 17 14 22 22 25 29 31 32 34 34 32 21 32 29 27 32 37 27 34 34 39 43 43 44 34 37 35 35 35 33 32 30 30 27
17 12 17 16 24 22 20 24 19 19 17 19 18 16 6 7 18 24 26 28 28 32 34 33 32 28 28 19 21 26 28 29 35 31 36 34 40 41 40 40 35 36 36 36 37 33 30 28 27
14 15 14 19 19 19 20 21 18 18 20 18 17 12 9 14 16 20 24 24 24 27 28 29 29 30 31 25 23 22 25 29 31 32 37 37 36 42 42 38 38 37 35 36 37 36 37 33 30
13 15 18 18 18 18 17 20 21 19 19 17 11 14 13 12 12 19 24 24 24 22 26 27 25 27 29 29 26 23 18 25 31 32 39 37 37 38 42 39 38 41 38 39 38 38 34 33 34
15 17 17 17 17 18 20 24 22 22 5 10 9 10 9 9 12 16 20 21 20 23 24 29 28 24 25 25 30 28 26 28 27 30 35 38 38 41 39 42 40 39 40 38 39 37 32 31 38
12 13 16 19 20 19 21 20 20 21 7 13 11 8 8 11 10 11 14 18 20 22 25 27 32 25 24 28 27 29 30 29 25 26 28 34 38 41 43 41 43 41 38 39 39 37 39 31 29
10 17 18 18 18 15 16 19 18 18 14 13 10 6 8 9 10 10 12 17 20 23 27 28 33 28 25 30 27 26 23 25 33 28 32 32 36 40 43 44 41 41 39 36 38 38 35 31 21
15 14 16 19 19 20 16 11 12 10 15 11 7 7 7 8 8 10 12 18 22 26 27 28 32 31 24 28 28 27 27 24 29 32 30 31 30 36 41 43 42 42 39 37 37 34 34 32 26
10 14 19 18 14 12 17 15 11 11 15 1 10 6 8 9 11 12 20 22 24 27 29 29 28 33 23 29 28 29 27 29 27 29 27 26 28 28 31 42 43 40 41 39 36 36 34 32 28
18 14 7 4 5 9 21 14 13 18 12 10 10 10 10 10 11 12 14 20 24 27 30 33 34 35 26 30 28 27 26 24 24 24 21 24 25 18 10 12 35 41 37 35 35 33 34 32 29
14 6 4 6 9 15 19 9 9 15 16 12 9 8 10 11 8 8 11 13 19 25 27 32 35 36 23 23 25 25 24 21 22 25 26 24 23 26 27 19 11 21 33 36 32 30 30 24 22
6 7 10 9 14 12 11 23 17 19 17 18 16 15 12 14 23 24 23 17 19 21 24 27 34 34 25 22 21 24 25 22 19 20 24 26 31 34 35 27 22 25 14 10 14 27 29 30 25
11 7 6 5 5 10 11 25 11 17 21 23 10 18 21 20 18 17 18 18 18 20 23 29 29 30 33 21 20 19 21 20 21 22 24 22 30 35 35 36 37 26 30 27 22 26 17 17 22
7 8 8 10 9 11 12 13 7 26 26 19 24 20 22 21 19 19 17 14 16 20 24 27 31 37 34 16 16 17 17 19 21 23 24 27 31 31 34 32 35 40 34 33 28 32 34 26 23
7 6 5 5 13 12 12 18 23 21 20 22 23 24 22 20 21 18 19 20 19 20 21 24 30 35 25 21 17 17 17 18 20 22 25 29 32 34 36 35 38 36 34 30 32 43 39 30 31
Wind_Direction
306 308 270 280 257 223 344 86 55 51 57 50 53 358 332 57 38 62 109 95 140 150 162 165 172 174 172 176 179 182 185 182 180 178 178 177 174 171 170 167 166 166 164 160 155 154 150 146 140
310 306 275 277 256 333 37 30 42 48 52 146 187 7 29 59 43 114 122 135 142 155 166 170 174 178 180 184 185 186 189 189 188 187 187 186 186 186 186 182 182 180 175 171 169 167 163 159 153
293 275 286 224 226 286 33 29 15 27 62 4 331 330 78 57 79 80 120 148 146 152 171 179 178 181 186 189 194 194 194 195 194 194 197 196 195 197 199 196 196 192 189 185 185 183 175 172 169
284 257 247 257 29 60 33 23 7 344 5 156 25 306 114 103 92 106 136 150 154 159 172 189 184 186 188 193 198 201 202 202 201 202 201 202 203 205 205 205 203 201 201 202 197 199 197 190 187
260 267 263 260 82 83 35 8 346 350 1 352 21 337 62 89 109 126 142 157 162 167 177 194 190 191 193 196 200 205 208 210 209 208 208 208 209 212 213 211 210 210 210 209 209 210 205 207 209
289 252 285 314 108 100 112 17 316 358 338 321 13 336 83 117 118 129 146 165 171 170 182 198 198 197 198 201 204 207 211 213 214 213 213 213 213 216 216 218 217 216 217 215 217 220 220 218 220
275 301 294 318 324 324 103 20 6 343 307 15 351 323 96 95 102 133 148 164 175 175 184 200 202 205 205 205 209 211 214 216 217 216 216 216 218 220 222 221 222 223 222 223 224 225 226 228 230
297 292 293 289 279 327 102 14 353 307 332 320 278 324 24 100 123 158 165 166 183 179 186 200 207 207 209 212 214 214 217 220 220 221 221 221 222 224 225 227 227 226 225 224 226 229 230 233 234
270 274 268 320 2 359 357 350 309 306 279 299 286 203 3 69 136 199 187 180 179 194 196 201 215 212 211 213 217 220 221 221 223 224 225 225 225 227 228 230 230 228 228 229 230 232 235 237 240
274 291 295 352 343 336 338 336 327 309 303 306 301 54 29 4 321 313 261 211 183 187 198 201 208 211 214 211 214 221 222 224 224 224 226 224 226 225 233 237 236 232 233 233 233 234 237 239 242
313 312 319 324 349 347 325 310 316 319 309 315 11 358 352 327 305 302 293 295 224 196 193 200 201 205 206 207 213 218 223 223 226 227 225 229 226 226 223 232 234 235 235 234 234 233 234 237 241
307 298 303 312 341 312 296 299 313 304 297 23 356 348 327 302 301 300 303 286 303 288 194 197 200 198 202 200 209 212 218 216 219 223 222 216 225 222 223 225 229 229 230 234 233 236 238 239 240
303 313 328 321 309 294 285 299 315 306 309 349 342 332 309 310 311 309 316 308 323 312 314 197 197 197 198 197 205 212 213 214 215 215 221 218 214 217 217 219 222 224 224 230 230 223 234 236 240
303 303 299 295 286 277 289 351 302 284 272 277 328 316 313 310 306 6 25 7 356 346 344 306 204 202 196 198 203 212 218 218 211 211 214 221 218 217 215 220 218 221 218 217 224 226 221 231 231
313 290 289 283 277 341 3 302 281 325 336 316 334 311 317 304 315 54 28 6 6 359 6 356 4 196 198 200 208 212 219 227 223 216 217 220 215 217 216 216 218 219 220 222 220 218 218 224 228
279 274 276 278 238 241 251 300 302 330 325 311 297 263 291 306 31 44 31 18 6 358 3 353 6 17 204 201 207 214 225 233 241 233 227 223 224 214 215 217 218 217 219 218 224 221 218 222 229
272 317 337 336 335 332 325 311 318 322 302 300 307 306 298 321 37 34 28 19 9 7 2 355 353 1 358 357 230 217 223 230 242 248 237 233 225 222 215 216 219 220 216 217 219 219 219 223 225
341 332 319 313 322 319 315 306 310 311 303 295 283 297 39 39 29 25 31 24 10 5 0 352 351 354 353 349 346 248 236 236 238 243 241 237 235 225 220 218 220 219 215 218 216 212 216 217 219
321 313 307 300 309 319 310 309 304 298 283 283 61 57 47 35 21 23 29 22 6 10 2 348 353 359 353 345 338 328 309 255 243 241 242 241 237 233 224 219 220 217 217 217 213 210 206 211 220
308 296 299 313 324 330 312 296 287 282 309 78 68 70 54 36 28 24 20 15 2 7 2 354 351 355 357 351 339 327 308 301 295 269 245 241 237 236 230 222 221 221 220 218 217 211 211 210 214
302 306 328 324 316 303 291 298 309 305 143 104 85 70 56 47 37 20 15 10 2 10 4 359 348 350 360 358 344 339 327 319 294 294 256 239 237 235 232 226 221 222 221 220 216 213 211 219 219
320 336 321 313 311 306 316 296 300 303 127 110 97 76 48 42 32 19 18 5 358 7 1 355 349 348 2 358 348 341 333 325 318 293 295 275 235 234 233 229 222 222 223 223 221 218 216 217 212
302 330 301 299 295 294 297 275 299 356 62 106 108 89 61 42 30 12 16 6 2 3 357 356 348 343 8 359 349 344 335 327 322 317 294 281 249 238 234 229 223 219 222 226 223 220 221 220 216
283 294 314 289 263 265 279 348 324 344 349 3 134 92 57 31 21 4 4 4 359 355 351 354 350 340 13 5 351 346 339 338 339 336 349 331 285 261 256 231 220 218 217 221 224 224 219 221 224
2 335 315 317 312 299 348 331 297 317 335 18 53 56 39 16 20 4 359 359 357 353 349 352 349 342 5 4 354 347 347 353 351 349 1 10 351 331 289 250 215 212 220 222 223 224 222 221 213
311 297 302 303 326 311 313 261 304 350 62 56 50 34 12 353 348 350 358 356 360 353 355 351 348 338 3 1 356 353 360 6 12 12 14 21 12 7 9 358 335 229 222 224 223 211 191 173 158
336 303 354 298 286 281 279 291 330 33 53 28 359 340 340 328 352 351 355 4 2 353 358 358 348 337 353 359 1 4 4 11 18 29 37 26 34 22 22 25 34 23 56 62 140 155 154 151 138
223 295 321 307 302 297 305 304 290 21 355 346 319 340 340 341 326 331 338 351 0 0 1 358 350 352 348 349 356 7 10 13 16 30 38 41 56 41 34 33 32 54 44 57 73 48 40 96 108
323 274 317 318 291 287 299 280 334 335 333 331 328 332 329 324 324 324 322 336 8 7 8 0 7 356 341 358 357 359 18 25 25 35 36 40 49 65 50 37 37 42 39 57 60 75 60 62 58
20 308 287 282 299 291 297 283 296 299 328 334 331 328 334 343 334 347 3 9 8 8 9 13 19 7 1 359 12 27 36 40 36 38 47 53 57 57 58 50 51 38 49 53 43 56 61 34 49